User: anonymous   Login
Location: Unspecified
(0.0000°N, 0.0000°E)
Time: 16:27:47
(UTC+00:00)
Language:

Intelsat II F-2 - Orbit

View from above orbital plane
View from above orbital plane
View from above satellite
View from above satellite

Ground track
Ground track

The orbit data is extracted from the following two-line orbital elements,

1  2639U 67001A   19015.72033654 +.00000023 +00000-0 +00000-0 0  9995
2  2639 003.4546 293.6413 0012110 318.0882 295.6520 01.00295808092077
Epoch (UTC): 15 January 2019 17:17:17
Eccentricity: 0.0012110
inclination: 3.4546°
perigee height: 35728 km
apogee height: 35830 km
right ascension of ascending node: 293.6413°
argument of perigee: 318.0882°
revolutions per day: 1.00295808
mean anomaly at epoch: 295.6520°
orbit number at epoch: 9207

The dashed part of the orbit path shows where the satellite is in the earth's shadow,  

DLR